Location: Albany
(35.0000°S, 118.0000°E)
Time: 18:27:29
(UTC-05:00)

Cosmos 1933 - Visible Passes

Search period start: 17 January 2017 00:00
Search period end: 27 January 2017 00:00
Orbit: 548 x 566 km, 82.5° (Epoch: 17 January)

Date Brightness Start Highest point End Pass type
(mag) Time Alt. Az. Time Alt. Az. Time Alt. Az.
17 Jan 3.8 07:50:55 29° NE 07:52:28 42° E 07:56:25 10° SSE visible
17 Jan 6.3 09:27:42 10° W 09:29:15 12° WSW 09:30:48 10° SW visible
18 Jan 3.6 07:48:14 25° NNE 07:50:23 50° E 07:54:27 10° SSE visible
19 Jan 3.4 07:45:28 19° N 07:48:19 60° E 07:52:26 10° SSE visible
20 Jan 3.3 07:42:35 13° N 07:46:15 72° E 07:50:25 10° S visible
21 Jan 3.3 07:40:04 10° N 07:44:11 86° E 07:48:23 10° S visible
22 Jan 3.5 07:38:01 10° N 07:42:08 81° W 07:46:20 10° S visible
23 Jan 3.7 07:35:59 10° NNW 07:40:05 68° W 07:44:16 10° S visible
24 Jan 4.1 07:33:59 10° NNW 07:38:03 56° W 07:42:10 10° S visible
25 Jan 4.4 07:32:00 10° NNW 07:35:59 47° W 07:40:04 10° S visible
26 Jan 4.8 07:30:04 10° NNW 07:33:58 40° W 07:37:55 10° S visible
